Regional Weather Roundup
Issued by NWS

Home | Current Version | Previous Version | Graphics & Text | Print | Product List | Glossary On
Versions: 1 2 3 4 5 6 7 8 9 10 11 12 13 14 15 16 17 18 19 20 21 22 23 24 25 26 27 28 29 30 31 32 33 34 35 36 37 38 39 40 41 42 43 44 45 46 47 48 49 50
000
ASUS43 KOAX 031002
RWRNE

WEATHER ROUNDUP FOR NEBRASKA
NATIONAL WEATHER SERVICE OMAHA NE
500 AM CDT WED JUN 03 2015

NOTES: SATELLITE DATA IS BEING USED TO AUGMENT CLOUD COVER ABOVE
       12000 FEET.
       "FAIR" INDICATES FEW OR NO CLOUDS BELOW 12,000 FEET WITH NO
       SIGNIFICANT WEATHER AND/OR OBSTRUCTIONS TO VISIBILITY.

  * THESE STATIONS DO NOT REPORT WEATHER SUCH AS RAIN...SNOW OR FOG.

NEZ001>004-019>022-054>056-031100-
NEBRASKA PANHANDLE

CITY           SKY/WX    TMP DP  RH WIND       PRES   REMARKS
SCOTTSBLUFF    CLEAR     57  52  83 NE6       29.96R
ALLIANCE       MOCLDY    56  54  93 NE8       29.94R
CHADRON        PTCLDY    50  49  96 SW6       29.95R
KIMBALL          N/A    N/A N/A N/A MISG        N/A
SIDNEY         MOCLDY    59  54  83 NE14      29.93R
$$

NEZ057>060-069>072-079>082-031100-
SOUTHWEST NEBRASKA

CITY           SKY/WX    TMP DP  RH WIND       PRES   REMARKS
NORTH PLATTE   CLOUDY    61  55  81 E17G29    29.84F
IMPERIAL       CLEAR     62  55  77 E20G30    29.84R
LEXINGTON      RAIN      61  58  88 NE17G24   29.93R
MCCOOK         MOCLDY    65  58  78 NE26G35   29.86R
$$

NEZ005>010-023>029-035>040-094-031100-
NORTH CENTRAL NEBRASKA

CITY           SKY/WX    TMP DP  RH WIND       PRES   REMARKS
VALENTINE      CLOUDY    59  54  83 SW9       29.88R
AINSWORTH      CLOUDY    61  58  90 SW6       29.90R
BROKEN BOW     LGT RAIN  61  58  90 S20       29.95R
O`NEILL        CLOUDY    61  60  97 W6        29.85S
ORD            LGT RAIN  61  58  90 SW15      29.87F
$$

NEZ041-046>049-061>064-073>077-083>087-031100-
SOUTH CENTRAL NEBRASKA

CITY           SKY/WX    TMP DP  RH WIND       PRES   REMARKS
GRAND ISLAND   TSTM      61  59  93 E10       29.88R
AURORA         CLOUDY    62  61  97 SE10      29.87F
HASTINGS       CLOUDY    62  58  86 E13       29.87R
HEBRON         CLOUDY    62  58  86 NE12      29.90S
HOLDREGE       CLOUDY    61  57  86 NE10G18   29.91R
KEARNEY *      CLOUDY    63  55  77 NW18G30   29.97R THUNDER
$$

NEZ011>018-030>034-042>045-031100-
NORTHEAST NEBRASKA

CITY           SKY/WX    TMP DP  RH WIND       PRES   REMARKS
NORFOLK        CLOUDY    63  59  87 SE7       29.72F
ALBION         CLOUDY    62  58  89 W16G24    29.87R
BLAIR          CLOUDY    63  60  90 SE5       29.91S
COLUMBUS *     CLOUDY    63  55  77 E9        29.84R
FREMONT        RAIN      64  61  88 CALM      29.89F
TEKAMAH        LGT RAIN  66  62  87 W3        29.87F
$$

NEZ050>053-065>068-078-088>093-031100-
SOUTHEAST NEBRASKA

CITY           SKY/WX    TMP DP  RH WIND       PRES   REMARKS
LINCOLN        LGT RAIN  63  61  93 SE6       29.87F
OMAHA EPPLEY   TSTM      67  62  84 S5G20     29.89F
BEATRICE       TSTM      63  60  91 NE7G18    29.92R
FALLS CITY     PTCLDY    65  60  84 SE9       29.86F
NEBRASKA CITY  LGT RAIN  65  60  81 NW13G36   29.94R
PLATTSMOUTH    RAIN      67  60  77 CALM      29.91R
$$

NEZ044-045-051>053-067-031100-
OMAHA AREA

CITY           SKY/WX    TMP DP  RH WIND       PRES   REMARKS
OMAHA EPPLEY   TSTM      67  62  84 S5G20     29.89F
BLAIR          CLOUDY    63  60  90 SE5       29.91S
FREMONT        RAIN      64  61  88 CALM      29.89F
PLATTSMOUTH    RAIN      67  60  77 CALM      29.91R
WAHOO          RAIN      64  61  89 NE8       29.87F
$$


USA.gov is the U.S. government's official web portal to all federal, state and local government web resources and services.